Portada
METAR-TAF:

METAR-TAF

Aeropuertos :

Aeropuerto de Castellón-Costa Azahar

Castellón de la Plana, España

latitud: 40-12-35N, longitud: 0-04-11E, altitud: 360 m

Observación

El informe se hizo hace 44 minutos, a las 04:00 UTC
Viento 2 kt con dirección variable
Temperatura 11°C
Humedad 87%
Presión 1012 hPa
Visibilidad 10 km o más

METAR: LECH 160400Z AUTO VRB02KT 9999 NCD 11/09 Q1012

Hora: 06:44 (04:44 UTC)


TAF: falta

Observaciones y pronósticos meteorológicos de más de 4000 aeropuertos (mensajes METAR y TAF).

Los puntos amarillos y rojos representan las estaciones disponibles.

Ponga el ratón en el punto deseado para ver el nombre de la estación.

Haga clic para ver las observaciones y los pronósticos meteorológicos.

Para cambiar el mapa : haga clic en los botones verdes con una cruz de color negro para hacer un zoom, en el botón verde con un guión para alejar o en las flechas verdes para mapas adyacentes.


METAR-TAF: